Location: Chantarel
(45.1638°N, 1.7873°E)
Time: 16:29:47
(UTC+00:00)

Cosmos 1666 - Pass Details

Date: 03 March 2021
Orbit: 497 x 518 km, 82.5° (Epoch: 11 April)

Event Time Altitude Azimuth Distance (km) Brightness Sun altitude
Rises 18:28:41 0° 150° (SSE) 2,574 5.9 -8.8°
Reaches altitude 10° 18:31:17 10° 131° (SE) 1,697 4.9 -9.3°
Maximum altitude 18:33:49 18° 87° (E) 1,290 4.1 -9.8°
Drops below altitude 10° 18:36:23 10° 44° (NE) 1,711 4.9 -10.2°
Sets 18:39:00 0° 25° (NNE) 2,604 6.0 -10.7°
